Regional Weather Roundup
Issued by NWS Newport/Morehead, NC

Current Version | Previous Version | Graphics & Text | Print | Product List | Glossary On
Versions: 1 2 3 4 5 6 7 8 9 10 11 12 13 14 15 16 17 18 19 20 21 22 23 24 25 26 27 28 29 30 31 32 33 34 35 36 37 38 39 40 41 42 43 44 45 46 47 48 49 50
000
ASUS42 KMHX 070712
RWRMHX
WEATHER ROUNDUP FOR EASTERN NORTH CAROLINA
NATIONAL WEATHER SERVICE NEWPORT/MOREHEAD CITY NC
300 AM EDT THU MAY 07 2015

NOTE: "FAIR" INDICATES FEW OR NO CLOUDS BELOW 12,000 FEET
WITH NO SIGNIFICANT WEATHER AND/OR OBSTRUCTIONS TO VISIBILITY

NCZ015>017-031-032-045>047-102-103-070800-
NORTH COAST

CITY           SKY/WX    TMP DP  RH WIND       PRES   REMARKS
EDENTON        MOCLDY    59  57  94 CALM      30.14F
ELIZABETH CITY PTCLDY    63  59  87 E7        30.15F
KITTY HAWK     MOSUNNY   60  60  97 E6        30.12F
MANTEO         PTCLDY    64  61  91 E9        30.14F

$$

NCZ045>047-081-094-103-104-070800-
CENTRAL COAST

CITY           SKY/WX    TMP DP  RH WIND       PRES   REMARKS
FRISCO         MOCLDY    64  56  75 NE7       30.11F
SWANQUARTER      N/A     63 N/A N/A NE6       30.09S

$$

NCZ095-097-098-100-101-070800-
SOUTHERN COAST

CITY           SKY/WX    TMP DP  RH WIND       PRES   REMARKS
BEAUFORT       CLOUDY    66  60  81 NE7       30.07F
CEDAR ISLAND     N/A     68 N/A N/A NE13      30.12F
JACKSONVILLE   CLOUDY    64  59  83 N9        30.07F
PINEY ISLAND   CLOUDY   N/A N/A N/A NE13      30.09F
WILMINGTON     CLOUDY    64  59  83 NE10      30.06F


$$

NCZ011>013-027>030-043-044-078>080-089-090>093-098-070800-
COASTAL PLAIN

CITY           SKY/WX    TMP DP  RH WIND       PRES   REMARKS
AHOSKIE        CLOUDY    56  55  97 CALM      30.15F
CLINTON        CLOUDY    63  58  84 NE3       30.11F
ELIZABETHTOWN  CLOUDY    61  58  89 CALM      30.09F
GOLDSBORO      CLOUDY    62  57  86 NE6       30.10F
GREENVILLE     CLOUDY    59  59 100 CALM      30.14F
HAVELOCK       CLOUDY    66  61  84 NE8       30.10F
KENANSVILLE    CLOUDY    61  57  86 CALM      30.11F
KINSTON        CLOUDY    61  58  89 N6        30.13F
NEW BERN       CLOUDY    64  60  87 NE9       30.11F
RICHLANDS      CLOUDY    63  55  77 N9        30.10F
ROCKY MOUNT    CLOUDY    58  56  93 CALM      30.14F
WASHINGTON     CLOUDY    59  57  91 NE5       30.13F
WHITEVILLE     CLOUDY    64  57  77 N5        30.06F

$$

AMZ130-135-150-152-154-156-158-170-250-252-270-ANZ085-086-088-633-658-670-070800-
MARINE OBSERVATIONS

STATION/POSITION TIME  TEMP    WIND        PRES    WAVE   SWELL
                       AIR SEA DIR/SP/G            HT/PER HT/PER
                 (UTC) (F)     (DEG/KT/KT) (MB)    (FT/S) (FT/S)
CHESAPEAKE LIGHT 0700   62     100/ 11/ 12 1021.8
64 E VA BEACH    0650   62 59   50/  8/  8 1020.8    2/ 8   2/ 8
DUCK             0600   61 51   60/ 11/ 11 1020.1
2 E DUCK         0611      56                N/A     2/ 7
OREGON INLET     0600   63 67   40/  8/  9 1020.7
13E OREGON INLT  0700      62                N/A     4/ 8
HATTERAS CG      0600   67 69   60/  5/  9 1019.4
DIAMOND BUOY     0650   72 75   80/ 16/ 17 1018.6    6/ 8   3/ 8
CAPE LOOKOUT     0700   69      50/ 13/ 14 1017.7
BEAUFORT LAB     0600   67 68   30/  4/  7 1018.2
27 SE WRIGHTSVLE 0600   67 71   60/ 17/ 23   N/A
5 SE WRIGHTSVLE  0608   68 68   40/ 17/ 23 1017.6
225 S CAPE HAT   0550   70 72  120/ 17/ 21 1014.9    7/ 8
41 SE CHARLESTON 0650   70 73   10/ 25/ 31 1013.4   10/10   7/10

$$



USA.gov is the U.S. government's official web portal to all federal, state and local government web resources and services.